Вернуться в каталог

FENGYUN 1C DEB

АктивенPO
NORAD 31165·DEBRIS·🇨🇳 China

Запущен May 10, 1999 с Taiyuan Satellite Launch Center

Loading…

Ближайшие Пролёты (ближайшие 24 часа)

TLE

СвежийSource: Space-Track

Эпоха: Sep 12, 2026, 11:35 UTC

1 31165U 99025BHT 26255.48268610  .00003390  00000-0  49892-3 0  9996
2 31165  98.8641 345.4673 0066295 100.1279 321.2355 14.74694889 27756

Отслеживайте FENGYUN 1C DEB в реальном времени с AllMySat

Download on the App Store